FENGYUN 1C DEB, 36281

Orbit data source: Space-Track

FENGYUN 1C DEB, 36281 is space debris in SSO originally from a launch on Mon, 10 May 1999 UTC launched from the Taiyaun Space Center, China (TSC). Fengyun 1C debris stems from the Chinese weather satellite Fengyun-1C, which was intentionally destroyed by a Chinese anti-satellite missile in 2007. This event dramatically increased the amount of space debris, with thousands of trackable fragments posing hazards to satellites and human spaceflight. The Fengyun 1C debris cloud has become a focal point in discussions about space sustainability and the need for international regulations to prevent the creation of new debris.

Loading next visibility...
Identifier
36281, 1999-025DXJ
Orbit
SSO
Country
Flag of CNCN / PRC
Related business
Manufacturer
Unknown
Mission
Spacecraft
Bus & Motor
Unknown
Mass
Unknown
Launch date (UTC)
1999-05-10 (27 years ago)
Launch vehicle
Unknown
Launch site
Taiyaun Space Center, China (TSC)
Object type
Payload
Rocket body
Debris
Shape & HBR
Unknown shape, 0.1 m
Radar Cross Section
Small (<0.1 m²)

Expand to show TLE details & history
Last TLE update: 1 day ago

TLE from 1 day ago
0 FENGYUN 1C DEB
1 36281U 99025DXJ 25352.55009046  .00002955  00000-0  30173-2 0  9998
2 36281  99.2596 274.1918 0291126  95.8514 267.5889 13.60285836845966
Epoch: 2025-12-18T13:12Z
TLE epoch observation values (Epoch: 2025-12-18T13:12:07.815Z)
Latitude
-0.00002°
Longitude
-11.24475°
Altitude
1,052.81 km
Speed
7.318 km/s
True Right ascension
18h 16m 46s
True Declination
0° 00' 00"
Sunlit
Object was in daylight at epoch
Visualization orbit readout
Latitude
Unknown
Longitude
Unknown
Altitude
Unknown
Speed
Unknown
Apparent Right ascension
Unknown
Apparent Declination
Unknown
Sunlit
N/A
Visualization observer readout
Local Sidereal Time
18:55:09
Azimuth
Unknown
Elevation
Unknown
Doppler factor
Unknown
Orbital elements
Apogee altitude
1,247.641 km
Perigee altitude
816.189 km
Semi-major axis
7,410.052 km
Eccentricity
0.02911
Inclination
99.2596°
RAAN
274.1918°
Arg. of periapsis
95.8514°
True anomaly
264.26276°
Mean anomaly
267.5889°
Eccentric anomaly
265.92509°
Mean motion
3.4026 °/min
Orbital period
105.8 mins
BSTAR
0.0030173
Loading maneuver chart data...
Computing Atmospheric mass density...

Documentation

Showing up to 5 results
|